Weather Roundup
Issued by NWS Chicago, IL

Home | Current Version | Previous Version | Graphics & Text | Print | Product List | Glossary On
Versions: 1 2 3 4 5 6 7 8 9 10 11 12 13 14 15 16 17 18 19 20 21 22 23 24 25 26 27 28 29 30 31 32 33 34 35 36 37 38 39 40 41 42 43 44 45 46 47 48 49 50
000
NZUS59 KLOT 221706
HRRLOT

CHICAGO AREA WEATHER ROUNDUP
NATIONAL WEATHER SERVICE CHICAGO/ROMEOVILLE IL
1200 PM CDT FRI AUG 22 2014

NOTE: "FAIR" INDICATES FEW OR NO CLOUDS BELOW 12,000 FEET WITH NO
SIGNIFICANT WEATHER AND/OR OBSTRUCTIONS TO VISIBILITY.

* THESE STATIONS ARE NOT UNDER NWS QUALITY CONTROL. THEY ALSO MAY NOT
  REPORT WEATHER SUCH AS PRECIPITATION OR FOG.

ILZ005-006-012>014-019>023-221800-
NORTHEAST ILLINOIS

CITY           SKY/WX    TMP DP  RH WIND       PRES   REMARKS
OHARE          CLOUDY    80  73  79 W10       29.96S HX  84
MIDWAY         CLOUDY    80  73  79 W10       29.96S HX  84
AURORA         CLOUDY    79  69  71 W10       29.96F HX  81
LANSING*       CLOUDY    79  72  80 W13       29.97S HX  82
JOLIET*        CLOUDY    77  71  80 W3        29.97F
WAUKEGAN       CLOUDY    75  72  90 VRB5      29.96S
DUPAGE AIRPORT CLOUDY    80  73  79 W7        29.96S HX  84
WHEELING       CLOUDY    82  74  76 SW6       29.97S HX  88
KANKAKEE*      CLOUDY    78  73  84 SW6       29.97F HX  81
MORRIS*        CLOUDY    78  71  79 CALM      29.96S HX  80
LEWIS AIRPORT* CLOUDY    78  73  86 W5        29.97F HX  80
NORTHERLY IS     N/A     79  72  79 W8          N/A  HX  82
$$

WIZ051-052-058>065-066-070>072-221800-
SOUTHEAST WISCONSIN

CITY           SKY/WX    TMP DP  RH WIND       PRES   REMARKS
MILWAUKEE      CLOUDY    74  70  87 E5        29.96F
KENOSHA*       CLOUDY    77  73  87 E6        29.97S
RACINE*        CLOUDY    75  70  84 E7        29.98S
BURLINGTON     CLOUDY    78  73  86 CALM      29.96S HX  80
WAUKESHA       MOSUNNY   81  72  74 CALM      29.97S HX  84
WEST BEND      CLOUDY    73  70  88 SE5       29.97F FOG
$$

INZ001>003-010>013-019-020-221800-
NORTHWEST INDIANA

CITY           SKY/WX    TMP DP  RH WIND       PRES   REMARKS
GARY*          CLOUDY    82  73  74 SW7       29.96F HX  88
MICHIGAN CITY* NOT AVBL
RENSSELAER*    NOT AVBL
VALPARAISO     CLOUDY    78  72  81 SW8       29.98F HX  80
$$

LMZ740>746-221800-
SOUTHERN LAKE MICHIGAN

STATION/POSITION TIME  SKY/WX   TEMP WIND        PRES    VSBY
                                AIR  DIR/SP/G
                 (UTC)          (F)  (DEG/KT/KT) (MB)    (MI)
HARRISON CRIB    1700            78  250/  8/ 11   N/A
BURNHAM HARBOR   1700            79  260/  7/  9   N/A
CALUMET HARBOR   1700            79  240/  2/ 11 1013.3R
BURNS HARBOR     NOT AVBL
MICHIGAN CITY    1700            76  210/  7/ 10   N/A
$$

ABBREVIATIONS USED IN REMARKS
   TC - TEMPERATURE IN CELSIUS
  WCI - WIND CHILL INDEX
   HX - HEAT INDEX
  VSB - VISIBILITY
$$


USA.gov is the U.S. government's official web portal to all federal, state and local government web resources and services.